Weather reports worldwide

Advertisment
Quickborn, Germany (10146): temperature & dewpoint: 25.09.2020 01:00:00 - 01.10.2020 01:00:00 (CEST)Quickborn, Germany (10146): temperature 5cm & temperature -5cm: 25.09.2020 01:00:00 - 01.10.2020 01:00:00 (CEST)Quickborn, Germany (10146): temperature -20cm & temperature -100cm: 25.09.2020 01:00:00 - 01.10.2020 01:00:00 (CEST)Quickborn, Germany (10146): wind speed & gusts: 25.09.2020 01:00:00 - 01.10.2020 01:00:00 (CEST)Quickborn, Germany (10146): wind direction: 25.09.2020 01:00:00 - 01.10.2020 01:00:00 (CEST)Quickborn, Germany (10146): reduced air pressure: 25.09.2020 01:00:00 - 01.10.2020 01:00:00 (CEST)Quickborn, Germany (10146): visibility: 25.09.2020 01:00:00 - 01.10.2020 01:00:00 (CEST)Quickborn, Germany (10146): precipitation: 25.09.2020 01:00:00 - 01.10.2020 01:00:00 (CEST)
Date & Time tt [°C] td [°C] tt 5cm [°C] tt -5cm [°C] tt -20cm [°C] tt -100cm [°C] ff [km/h] ff [kn] fx [km/h] fx [kn] dd ppp [hPa] vv [km] rr [mm]
01.10.2020 01:00:00 10,9 10,2 6,4 10,2 14,0 14,1 4 2 8 5 SE 1012,1 10 0,0
01.10.2020 00:00:00 12,0 11,0 7,3 11,0 14,3 14,1 5 3 9 5 ESE 1012,6 16 0,0
30.09.2020 23:00:00 13,0 11,6 10,3 11,7 14,6 14,1 7 4 13 7 ESE 1013,1 23 0,0
30.09.2020 22:00:00 13,6 12,1 11,0 12,2 14,9 14,1 8 5 14 7 ESE 1013,5 30 0,0
30.09.2020 21:00:00 12,4 12,1 8,4 12,7 15,3 14,1 5 3 10 5 ESE 1013,9 38 0,0
30.09.2020 20:00:00 12,5 11,5 8,8 14,1 15,5 14,1 3 1 8 4 ENE 1013,7 9 0,0
30.09.2020 19:00:00 15,9 12,9 12,4 16,0 15,6 14,1 6 3 14 7 ESE 1013,5 53 0,0
30.09.2020 18:00:00 17,8 13,4 18,2 18,0 15,6 14,1 9 5 15 8 SE 1013,6 49 0,0
30.09.2020 17:00:00 17,6 13,2 17,3 18,8 15,4 14,1 6 4 18 10 SSE 1013,8 - 0,0
30.09.2020 16:00:00 18,9 13,5 22,3 20,6 15,1 14,1 11 6 18 10 SSE 1014,1 47 0,0
30.09.2020 15:00:00 18,3 12,7 19,7 21,7 14,6 14,1 11 6 19 10 SSE 1014,5 49 0,0
30.09.2020 14:00:00 18,4 12,7 21,1 21,5 14,1 14,1 9 5 16 9 SSE 1015,0 41 0,0
30.09.2020 13:00:00 17,8 13,0 20,6 20,3 13,7 14,1 9 5 17 9 S 1015,4 43 0,0
30.09.2020 12:00:00 15,9 12,7 17,9 17,6 13,4 14,1 6 4 13 7 S 1015,9 26 0,0
30.09.2020 11:00:00 15,0 13,4 16,6 15,6 13,3 14,1 8 5 14 7 SE 1016,1 13 0,0
30.09.2020 10:00:00 14,3 12,9 15,1 15,1 13,2 14,1 5 3 11 6 SSW 1016,3 10 0,0
30.09.2020 09:00:00 13,7 12,9 14,2 13,8 13,2 14,1 4 2 5 3 ESE 1016,1 8 0,0
30.09.2020 08:00:00 13,0 12,6 12,9 13,1 13,2 14,2 3 2 6 4 SE 1016,2 5 0,0
30.09.2020 07:00:00 12,9 12,5 12,7 13,1 13,3 14,2 4 2 8 4 S 1015,9 6 0,0
30.09.2020 06:00:00 12,9 12,5 12,8 13,1 13,3 14,2 3 2 5 3 SE 1015,9 5 0,0
30.09.2020 05:00:00 13,0 12,4 12,7 13,1 13,3 14,2 3 2 6 3 SW 1016,2 6 0,0
30.09.2020 04:00:00 12,9 12,3 12,8 13,1 13,4 14,2 4 2 6 4 S 1016,4 7 0,0
30.09.2020 03:00:00 12,9 12,3 12,7 13,2 13,5 14,2 5 3 9 5 S 1016,6 6 0,0
30.09.2020 02:00:00 13,0 11,9 12,9 13,2 13,5 14,2 6 3 10 5 S 1016,7 11 0,0
30.09.2020 01:00:00 13,0 11,9 12,8 13,2 13,6 14,2 6 3 10 6 S 1016,7 12 0,0
30.09.2020 00:00:00 13,1 11,4 12,6 13,3 13,7 14,2 7 4 13 7 SSW 1016,8 18 0,1
29.09.2020 23:00:00 13,9 10,6 13,3 13,5 13,8 14,2 9 5 17 9 SW 1016,8 36 0,0
29.09.2020 22:00:00 13,5 11,1 12,8 13,6 14,0 14,2 4 2 7 4 SSE 1016,9 42 0,0
29.09.2020 21:00:00 13,8 10,8 12,9 13,8 14,1 14,2 3 2 6 4 S 1016,6 63 0,0
29.09.2020 20:00:00 13,9 10,5 11,4 14,2 14,2 14,2 4 2 9 5 S 1016,2 49 0,0
29.09.2020 19:00:00 15,3 10,7 14,3 15,2 14,2 14,2 4 2 12 7 S 1015,8 45 0,0
29.09.2020 18:00:00 16,1 10,3 15,7 16,1 14,2 14,2 6 4 16 8 WSW 1015,4 72 0,0
29.09.2020 17:00:00 - - - - - - - - - - - - - -
29.09.2020 16:00:00 - - - - - - - - - - - - - -
29.09.2020 15:00:00 17,4 9,2 18,7 18,7 13,3 14,2 11 6 20 11 S 1015,1 57 0,0
29.09.2020 14:00:00 17,1 9,3 19,0 19,1 12,8 14,2 9 5 18 10 S 1015,5 55 0,0
29.09.2020 13:00:00 17,3 8,7 19,6 20,6 12,2 14,3 11 6 21 12 S 1015,6 74 0,0
29.09.2020 12:00:00 15,8 8,6 17,5 19,0 11,6 14,3 10 5 16 8 S 1015,7 48 0,0
29.09.2020 11:00:00 14,0 9,3 14,9 16,2 11,3 14,3 6 3 12 6 SE 1015,7 41 0,0
29.09.2020 10:00:00 12,1 8,6 12,6 12,6 11,3 14,3 7 4 11 6 SSE 1015,4 48 0,0
29.09.2020 09:00:00 9,9 7,7 9,7 8,7 11,5 14,3 6 4 9 5 SSE 1015,2 44 0,0
29.09.2020 08:00:00 7,1 7,0 3,4 7,1 11,8 14,3 4 2 13 7 SE 1014,8 15 0,0
29.09.2020 07:00:00 6,4 6,0 2,4 7,8 12,0 14,3 3 2 9 5 SE 1014,3 0,6 0,0
29.09.2020 06:00:00 7,4 7,1 4,0 9,0 12,2 14,3 2 1 5 3 S 1014,0 0,3 0,0
29.09.2020 05:00:00 9,8 9,3 7,4 10,5 12,3 14,3 2 1 6 3 SE 1013,7 9 0,0
29.09.2020 04:00:00 10,8 9,6 9,7 10,9 12,4 14,3 5 3 6 3 SE 1013,9 40 0,0
29.09.2020 03:00:00 10,9 9,9 10,0 10,9 12,5 14,3 4 2 6 4 SSE 1013,7 33 0,0
29.09.2020 02:00:00 11,1 10,0 10,0 11,0 12,6 14,3 4 2 8 4 SSE 1013,4 35 0,0
29.09.2020 01:00:00 10,7 9,9 9,4 10,7 12,8 14,3 5 3 7 4 SSE 1013,4 28 0,0
29.09.2020 00:00:00 11,0 10,2 9,5 11,1 12,9 14,3 4 2 7 4 SSE 1013,4 26 0,0
28.09.2020 23:00:00 10,8 10,5 9,0 11,8 13,1 14,3 3 2 5 3 SE 1013,2 1,0 0,0
28.09.2020 22:00:00 11,3 10,9 10,6 12,3 13,2 14,3 0 0 3 2 N 1012,8 3,6 0,0
28.09.2020 21:00:00 11,8 10,9 11,3 12,7 13,2 14,3 2 1 3 2 WNW 1012,5 9 0,0
28.09.2020 20:00:00 12,2 10,9 11,6 13,0 13,3 14,4 0 0 8 4 N 1011,9 12 0,0
28.09.2020 19:00:00 13,1 10,6 12,2 13,6 13,3 14,4 5 3 8 4 SE 1011,4 22 0,0
28.09.2020 18:00:00 13,4 11,2 13,1 14,2 13,3 14,4 4 2 10 6 SE 1010,8 23 0,0
28.09.2020 17:00:00 13,6 10,8 13,4 14,6 13,2 14,4 5 3 20 11 SSE 1010,4 23 0,0
28.09.2020 16:00:00 13,9 10,5 13,9 15,2 13,0 14,4 8 4 16 9 SE 1010,0 38 0,0
28.09.2020 15:00:00 14,0 10,3 14,2 15,7 12,8 14,4 9 5 16 9 S 1010,0 34 0,0
28.09.2020 14:00:00 13,5 10,5 14,2 15,6 12,5 14,4 9 5 17 9 S 1009,7 38 0,0
28.09.2020 13:00:00 12,8 10,3 13,4 15,0 12,3 14,4 8 4 16 9 SW 1009,7 21 0,0
28.09.2020 12:00:00 12,2 10,5 12,9 13,6 12,2 14,4 9 5 14 8 S 1009,6 17 0,0
28.09.2020 11:00:00 11,6 10,4 12,1 12,8 12,2 14,4 6 4 11 6 S 1009,4 7 0,0
28.09.2020 10:00:00 11,0 10,4 11,4 12,0 12,2 14,4 9 5 16 9 S 1008,9 6 0,0
28.09.2020 09:00:00 10,8 10,0 10,8 11,5 12,2 14,4 12 7 19 11 S 1008,5 4,6 0,0
28.09.2020 08:00:00 10,6 10,3 10,8 11,4 12,2 14,4 7 4 13 7 SSE 1008,0 3,4 0,2
28.09.2020 07:00:00 10,7 10,5 10,8 11,5 12,3 14,4 5 3 9 5 SSW 1007,3 1,7 0,0
28.09.2020 06:00:00 10,8 10,5 10,7 11,5 12,3 14,5 5 3 10 5 S 1007,4 3,2 0,1
28.09.2020 05:00:00 10,8 10,5 10,8 11,5 12,3 14,5 5 3 13 7 S 1007,4 2,6 0,2
28.09.2020 04:00:00 10,8 10,4 10,8 11,5 12,4 14,5 4 2 12 7 S 1007,4 2,2 0,0
28.09.2020 03:00:00 10,8 10,3 10,7 11,5 12,4 14,5 8 4 16 9 SW 1007,4 3,8 0,0
28.09.2020 02:00:00 10,8 10,4 10,8 11,5 12,5 14,5 7 4 15 8 SSW 1007,2 2,0 0,0
28.09.2020 01:00:00 10,7 10,3 10,6 11,6 12,5 14,5 8 5 18 10 SW 1007,1 4,0 0,2
28.09.2020 00:00:00 10,9 10,6 10,9 11,7 12,6 14,5 7 4 15 8 SSW 1007,0 1,9 0,1
27.09.2020 23:00:00 11,0 10,7 11,0 11,7 12,7 14,5 6 3 13 7 SW 1006,8 6 0,2
27.09.2020 22:00:00 11,0 10,6 10,9 11,8 12,7 14,5 7 4 13 7 SW 1006,5 2,4 0,5
27.09.2020 21:00:00 11,0 10,6 10,9 11,8 12,8 14,5 8 4 15 8 SW 1006,5 7 0,9
27.09.2020 20:00:00 10,9 10,5 10,9 11,9 12,9 14,5 8 4 14 7 SW 1006,3 3,9 0,8
27.09.2020 19:00:00 10,9 10,4 10,8 12,1 12,9 14,5 8 4 16 8 SW 1005,8 10 2,4
27.09.2020 18:00:00 11,0 10,6 11,0 12,4 13,0 14,5 6 4 12 6 SW 1005,3 3,4 1,6
27.09.2020 17:00:00 11,0 10,5 11,0 12,7 13,0 14,5 8 4 16 9 W 1005,1 8 0,2
27.09.2020 16:00:00 11,2 10,3 11,3 13,2 12,9 14,5 6 4 10 6 WSW 1005,0 7 0,1
27.09.2020 15:00:00 11,6 10,4 11,8 13,5 12,9 14,6 4 2 5 3 SW 1004,6 4,9 0,2
27.09.2020 14:00:00 11,8 10,1 12,1 13,5 12,8 14,6 3 2 6 3 SSW 1004,5 30 0,1
27.09.2020 13:00:00 11,7 9,5 12,5 13,6 12,8 14,6 6 3 8 4 WSW 1003,7 32 0,0
27.09.2020 12:00:00 11,4 9,5 11,9 13,1 12,7 14,6 3 2 11 6 SW 1003,8 26 0,0
27.09.2020 11:00:00 11,3 9,5 11,9 12,7 12,7 14,6 8 4 11 6 ESE 1004,0 29 0,0
27.09.2020 10:00:00 11,4 9,0 12,1 12,7 12,7 14,6 6 3 10 5 E 1003,1 43 0,0
27.09.2020 09:00:00 11,2 9,2 11,5 11,9 12,8 14,6 6 4 11 6 ESE 1002,2 36 0,0
27.09.2020 08:00:00 11,1 9,2 11,0 11,6 12,8 14,6 6 3 11 6 ENE 1001,7 39 0,0
27.09.2020 07:00:00 11,2 9,3 10,9 11,6 12,9 14,6 7 4 22 12 E 1000,8 31 0,0
27.09.2020 06:00:00 11,4 9,4 11,2 11,7 13,0 14,6 13 7 24 13 E 1000,1 43 0,0
27.09.2020 05:00:00 11,9 9,7 11,3 11,8 13,1 14,6 13 7 29 15 E 998,9 56 0,0
27.09.2020 04:00:00 12,6 9,6 11,8 12,4 13,2 14,6 18 10 29 16 E 998,0 60 0,0
27.09.2020 03:00:00 13,2 10,3 12,3 12,7 13,2 14,6 14 8 36 19 E 996,8 75 0,0
27.09.2020 02:00:00 13,8 10,4 12,7 13,1 13,2 14,7 23 12 37 20 E 995,8 65 0,0
27.09.2020 01:00:00 14,9 12,0 13,6 13,5 13,2 14,7 23 12 48 26 E 994,2 63 0,0
27.09.2020 00:00:00 16,5 15,1 15,7 14,0 13,1 14,7 14 8 37 20 NE 992,5 20 0,0
26.09.2020 23:00:00 15,2 14,3 14,8 13,2 13,2 14,7 16 9 31 17 NNE 991,9 30 0,1
26.09.2020 22:00:00 12,7 12,1 12,4 12,7 13,2 14,7 17 9 36 19 NNW 991,7 21 1,4
26.09.2020 21:00:00 12,0 11,3 11,8 12,7 13,3 14,7 19 10 39 21 NNW 993,0 7 2,2
26.09.2020 20:00:00 11,9 11,0 11,5 13,0 13,3 14,7 18 10 34 19 NW 994,2 15 2,9
26.09.2020 19:00:00 11,9 10,7 11,4 13,6 13,3 14,7 12 7 20 11 NW 995,6 10 1,6
26.09.2020 18:00:00 12,6 10,3 11,9 14,2 13,2 14,7 10 5 16 9 NW 996,1 21 0,3
26.09.2020 17:00:00 13,4 9,1 13,3 15,0 13,1 14,7 10 5 15 8 WNW 996,6 30 0,0
26.09.2020 16:00:00 13,8 8,2 14,4 15,7 12,8 14,7 9 5 18 10 WNW 997,6 46 0,0
26.09.2020 15:00:00 13,7 7,6 14,6 16,2 12,5 14,7 11 6 19 11 NW 997,8 51 0,0
26.09.2020 14:00:00 13,6 8,0 16,0 15,2 12,3 14,7 9 5 15 8 NW 998,1 47 0,0
26.09.2020 13:00:00 12,2 8,1 13,6 14,1 12,1 14,7 5 3 10 5 NW 998,4 41 0,0
26.09.2020 12:00:00 11,2 7,5 12,8 12,7 11,9 14,7 3 1 4 2 SSW 998,4 40 0,0
26.09.2020 11:00:00 10,0 7,6 11,0 12,1 11,9 14,7 3 2 4 2 W 998,3 37 0,0
26.09.2020 10:00:00 8,3 7,6 10,0 10,3 11,9 14,7 3 1 6 3 SSE 998,1 22 0,0
26.09.2020 09:00:00 6,3 6,0 6,9 9,2 12,0 14,7 2 1 4 2 SW 997,7 23 0,0
26.09.2020 08:00:00 4,3 4,3 3,3 8,5 12,2 14,7 2 1 4 2 N 997,7 14 0,0
26.09.2020 07:00:00 2,9 2,9 1,7 8,0 12,4 14,8 0 0 4 2 N 997,1 13 0,0
26.09.2020 06:00:00 1,9 1,9 -1,3 8,0 12,6 14,8 2 1 4 2 NNE 997,1 2,5 0,0
26.09.2020 05:00:00 3,2 3,1 -0,7 8,7 12,9 14,8 0 0 3 2 N 997,2 0,8 0,0
26.09.2020 04:00:00 4,2 4,1 1,9 9,3 13,1 14,8 0 0 3 2 N 996,8 6 0,0
26.09.2020 03:00:00 4,2 3,9 3,4 9,4 13,3 14,8 0 0 4 2 N 996,8 13 0,0
26.09.2020 02:00:00 3,6 3,6 1,1 9,4 13,6 14,8 0 0 4 2 N 996,9 10 0,0
26.09.2020 01:00:00 3,1 3,1 0,6 9,5 13,9 14,8 0 0 3 2 N 996,9 0,7 0,0
26.09.2020 00:00:00 2,7 2,7 -1,0 9,6 14,3 14,8 0 0 4 2 N 996,7 0,4 0,0
25.09.2020 23:00:00 3,4 2,9 -1,1 10,4 14,6 14,8 0 0 4 2 N 996,8 0,4 0,0
25.09.2020 22:00:00 4,5 4,3 0,2 11,3 15,0 14,8 2 1 4 2 SSW 997,1 13 0,0
25.09.2020 21:00:00 5,8 5,4 0,9 12,4 15,2 14,8 0 0 4 2 N 996,9 15 0,0
25.09.2020 20:00:00 7,6 6,2 2,1 14,1 15,4 14,8 0 0 8 4 N 996,7 45 0,0
25.09.2020 19:00:00 13,0 5,5 9,9 16,3 15,4 14,8 5 3 21 11 WSW 996,5 47 0,0
25.09.2020 18:00:00 15,0 4,8 15,4 18,7 15,2 14,8 11 6 25 13 WSW 996,3 70 0,0
25.09.2020 17:00:00 16,1 5,6 18,8 20,4 14,9 14,8 9 5 24 13 SW 995,9 54 0,0
25.09.2020 16:00:00 16,5 6,5 20,2 20,5 14,6 14,8 11 6 27 14 WSW 996,0 63 0,0
25.09.2020 15:00:00 15,1 7,1 17,3 19,8 14,3 14,8 15 8 25 14 SW 996,1 68 0,0
25.09.2020 14:00:00 15,1 8,6 18,0 17,8 14,1 14,8 14 7 24 13 SW 996,1 58 0,0
25.09.2020 13:00:00 14,2 10,1 16,4 15,7 14,0 14,8 10 5 24 13 WSW 996,4 47 0,0
25.09.2020 12:00:00 13,6 9,5 14,9 15,5 13,9 14,8 14 7 26 14 SW 996,4 52 0,0
25.09.2020 11:00:00 13,4 10,4 14,4 14,6 13,9 14,8 8 4 24 13 SW 996,2 52 0,0
25.09.2020 10:00:00 13,3 10,6 14,1 14,1 13,9 14,8 5 3 25 13 SSE 995,7 61 0,1
25.09.2020 09:00:00 13,0 11,2 12,4 13,5 13,9 14,8 11 6 21 12 S 995,8 7 0,2
25.09.2020 08:00:00 13,3 10,6 12,9 13,3 13,9 14,8 10 5 23 13 SE 995,7 58 0,0
25.09.2020 07:00:00 13,8 10,4 13,2 13,2 14,0 14,8 15 8 27 14 SE 995,5 68 0,0
25.09.2020 06:00:00 13,6 9,8 12,3 12,9 14,1 14,8 11 6 23 12 SE 995,9 61 0,0
25.09.2020 05:00:00 13,5 8,5 12,2 12,8 14,2 14,8 13 7 26 14 SE 996,3 55 0,0
25.09.2020 04:00:00 13,6 7,3 12,5 12,6 14,3 14,8 13 7 24 13 ESE 996,9 53 0,0
25.09.2020 03:00:00 10,6 7,1 8,1 12,6 14,5 14,8 3 2 11 6 N 997,8 49 0,0
25.09.2020 02:00:00 13,0 6,9 11,0 12,7 14,6 14,8 8 4 16 9 ESE 998,6 59 0,0
25.09.2020 01:00:00 12,5 7,0 10,3 12,8 14,8 14,8 9 5 15 8 ESE 999,5 63 0,0

tt = temperature
td = dewpoint
tt 5cm = temperature 5cm
tt -5cm = temperature -5cm
tt -20cm = temperature -20cm
tt -100cm = temperature -100cm
ff = wind speed
fx = gusts
dd = wind direction
ppp = reduced air pressure
vv = visibility
rr = precipitation

Next stations